TimeAKST,TemperatureF,Dew PointF,Humidity,Sea Level PressureIn,VisibilityMPH,Wind Direction,Wind SpeedMPH,Gust SpeedMPH,PrecipitationIn,Events,Conditions,WindDirDegrees,DateUTC
12:16 AM,33.8,28.4,81,29.33,9.0,South,4.6,-,N/A,,Overcast,180,2011-11-17 09:16:00
12:36 AM,33.8,28.4,81,29.34,9.0,ESE,8.1,-,N/A,,Overcast,110,2011-11-17 09:36:00
12:56 AM,33.8,28.4,81,29.33,10.0,ESE,11.5,-,N/A,,Overcast,110,2011-11-17 09:56:00
1:16 AM,33.8,28.4,81,29.34,10.0,SE,12.7,-,N/A,,Overcast,130,2011-11-17 10:16:00
1:36 AM,33.8,28.4,81,29.36,10.0,SSE,5.8,-,N/A,,Overcast,160,2011-11-17 10:36:00
1:56 AM,33.8,28.4,81,29.38,10.0,Calm,Calm,-,N/A,,Mostly Cloudy,0,2011-11-17 10:56:00
2:16 AM,33.8,26.6,75,29.38,10.0,Calm,Calm,-,N/A,,Overcast,0,2011-11-17 11:16:00
2:36 AM,33.8,28.4,81,29.39,10.0,Calm,Calm,-,N/A,,Overcast,0,2011-11-17 11:36:00
2:56 AM,33.8,28.4,81,29.41,10.0,Calm,Calm,-,N/A,,Overcast,0,2011-11-17 11:56:00
3:16 AM,33.8,26.6,75,29.41,10.0,Calm,Calm,-,N/A,,Overcast,0,2011-11-17 12:16:00
3:36 AM,33.8,26.6,75,29.42,10.0,ESE,3.5,-,N/A,,Overcast,110,2011-11-17 12:36:00
3:56 AM,33.8,28.4,81,29.43,10.0,ESE,5.8,-,N/A,,Mostly Cloudy,120,2011-11-17 12:56:00
4:16 AM,33.8,28.4,81,29.44,10.0,ESE,6.9,-,N/A,,Partly Cloudy,110,2011-11-17 13:16:00
4:36 AM,33.8,28.4,81,29.44,10.0,East,6.9,-,N/A,,Clear,100,2011-11-17 13:36:00
4:56 AM,33.8,28.4,81,29.45,10.0,ESE,5.8,-,N/A,,Clear,120,2011-11-17 13:56:00
5:16 AM,30.2,26.6,86,29.46,10.0,SSW,5.8,-,N/A,,Clear,200,2011-11-17 14:16:00
5:36 AM,30.2,26.6,86,29.47,10.0,South,5.8,-,N/A,,Clear,170,2011-11-17 14:36:00
5:56 AM,30.2,26.6,86,29.48,10.0,SE,6.9,-,N/A,,Clear,140,2011-11-17 14:56:00
6:16 AM,30.2,26.6,86,29.49,10.0,SSE,5.8,-,N/A,,Clear,150,2011-11-17 15:16:00
6:36 AM,30.2,26.6,86,29.49,10.0,SE,5.8,-,N/A,,Clear,140,2011-11-17 15:36:00
6:56 AM,30.2,26.6,86,29.51,10.0,South,5.8,-,N/A,,Partly Cloudy,170,2011-11-17 15:56:00
7:16 AM,30.2,26.6,86,29.51,10.0,SSE,6.9,-,N/A,,Partly Cloudy,150,2011-11-17 16:16:00
7:36 AM,30.2,26.6,86,29.52,10.0,SE,6.9,-,N/A,,Partly Cloudy,140,2011-11-17 16:36:00
7:56 AM,30.2,26.6,86,29.52,10.0,SSE,5.8,-,N/A,,Partly Cloudy,150,2011-11-17 16:56:00
8:16 AM,30.2,26.6,86,29.53,10.0,SSE,5.8,-,N/A,,Partly Cloudy,160,2011-11-17 17:16:00
8:36 AM,30.2,26.6,86,29.54,10.0,Calm,Calm,-,N/A,,Partly Cloudy,0,2011-11-17 17:36:00
8:56 AM,30.2,26.6,86,29.54,10.0,Calm,Calm,-,N/A,,Scattered Clouds,0,2011-11-17 17:56:00
9:16 AM,30.2,26.6,86,29.56,10.0,Calm,Calm,-,N/A,,Scattered Clouds,0,2011-11-17 18:16:00
9:36 AM,30.2,26.6,86,29.57,10.0,WNW,3.5,-,N/A,,Scattered Clouds,290,2011-11-17 18:36:00
9:56 AM,30.2,26.6,86,29.57,10.0,SW,3.5,-,N/A,,Scattered Clouds,230,2011-11-17 18:56:00
10:16 AM,30.2,26.6,86,29.58,10.0,SW,4.6,-,N/A,,Scattered Clouds,220,2011-11-17 19:16:00
10:36 AM,30.2,26.6,86,29.59,8.0,SW,5.8,-,N/A,,Scattered Clouds,230,2011-11-17 19:36:00
10:56 AM,32.0,26.6,80,29.59,10.0,WNW,5.8,-,N/A,,Mostly Cloudy,290,2011-11-17 19:56:00
11:16 AM,32.0,28.4,87,29.60,10.0,WSW,4.6,-,N/A,,Mostly Cloudy,250,2011-11-17 20:16:00
11:36 AM,32.0,28.4,87,29.60,10.0,SW,6.9,-,N/A,,Mostly Cloudy,230,2011-11-17 20:36:00
11:56 AM,33.8,28.4,81,29.60,10.0,WSW,6.9,-,N/A,,Mostly Cloudy,250,2011-11-17 20:56:00
12:16 PM,32.0,28.4,87,29.61,10.0,WSW,3.5,-,N/A,,Mostly Cloudy,250,2011-11-17 21:16:00
12:36 PM,33.8,28.4,81,29.62,10.0,NW,6.9,-,N/A,,Mostly Cloudy,310,2011-11-17 21:36:00
12:56 PM,33.8,28.4,81,29.62,10.0,West,6.9,-,N/A,,Mostly Cloudy,270,2011-11-17 21:56:00
1:16 PM,33.8,26.6,75,29.62,10.0,SW,8.1,-,N/A,,Mostly Cloudy,220,2011-11-17 22:16:00
1:36 PM,33.8,28.4,81,29.63,10.0,SW,10.4,-,N/A,,Mostly Cloudy,230,2011-11-17 22:36:00
1:56 PM,33.8,28.4,81,29.64,10.0,WSW,6.9,-,N/A,,Overcast,240,2011-11-17 22:56:00
2:16 PM,33.8,28.4,81,29.65,10.0,SW,6.9,-,N/A,,Overcast,220,2011-11-17 23:16:00
2:36 PM,33.8,28.4,81,29.66,10.0,South,3.5,-,N/A,,Overcast,180,2011-11-17 23:36:00
2:56 PM,33.8,28.4,81,29.67,10.0,South,4.6,-,N/A,,Overcast,190,2011-11-17 23:56:00
3:16 PM,33.8,28.4,81,29.68,10.0,Calm,Calm,-,N/A,,Overcast,0,2011-11-18 00:16:00
3:36 PM,33.8,28.4,81,29.68,10.0,Calm,Calm,-,N/A,,Overcast,0,2011-11-18 00:36:00
3:56 PM,32.0,28.4,87,29.69,10.0,South,5.8,-,N/A,,Overcast,170,2011-11-18 00:56:00
4:16 PM,33.8,28.4,81,29.70,10.0,East,8.1,-,N/A,,Overcast,100,2011-11-18 01:16:00
4:36 PM,33.8,26.6,75,29.71,10.0,ESE,11.5,-,N/A,,Overcast,110,2011-11-18 01:36:00
4:56 PM,35.6,24.8,65,29.72,10.0,East,12.7,-,N/A,,Overcast,90,2011-11-18 01:56:00
5:16 PM,35.6,24.8,65,29.72,10.0,East,13.8,-,N/A,,Overcast,90,2011-11-18 02:16:00
5:36 PM,35.6,21.2,56,29.73,10.0,East,16.1,20.7,N/A,,Overcast,80,2011-11-18 02:36:00
5:56 PM,33.8,21.2,60,29.74,10.0,East,13.8,-,N/A,,Overcast,90,2011-11-18 02:56:00
6:16 PM,33.8,21.2,60,29.75,10.0,East,13.8,-,N/A,,Overcast,90,2011-11-18 03:16:00
6:36 PM,33.8,21.2,60,29.76,10.0,ESE,12.7,-,N/A,,Overcast,110,2011-11-18 03:36:00
6:56 PM,33.8,21.2,60,29.77,10.0,East,13.8,-,N/A,,Clear,100,2011-11-18 03:56:00
7:36 PM,33.8,19.4,56,29.79,10.0,East,11.5,-,N/A,,Clear,80,2011-11-18 04:36:00
7:56 PM,33.8,19.4,56,29.80,10.0,East,15.0,-,N/A,,Overcast,80,2011-11-18 04:56:00
8:16 PM,33.8,19.4,56,29.81,10.0,East,13.8,-,N/A,,Overcast,90,2011-11-18 05:16:00
8:36 PM,33.8,19.4,56,29.82,10.0,ENE,13.8,-,N/A,,Overcast,70,2011-11-18 05:36:00
8:56 PM,32.0,17.6,55,29.83,10.0,East,13.8,19.6,N/A,,Overcast,80,2011-11-18 05:56:00
9:16 PM,32.0,19.4,60,29.83,10.0,East,12.7,-,N/A,,Overcast,90,2011-11-18 06:16:00
9:36 PM,30.2,19.4,64,29.84,10.0,East,10.4,-,N/A,,Overcast,90,2011-11-18 06:36:00
9:56 PM,30.2,19.4,64,29.85,10.0,ESE,11.5,-,N/A,,Overcast,120,2011-11-18 06:56:00
10:16 PM,30.2,17.6,60,29.86,10.0,East,13.8,17.3,N/A,,Overcast,100,2011-11-18 07:16:00
10:36 PM,30.2,17.6,60,29.87,10.0,ENE,10.4,-,N/A,,Overcast,70,2011-11-18 07:36:00
10:56 PM,30.2,17.6,60,29.87,10.0,East,11.5,-,N/A,,Overcast,80,2011-11-18 07:56:00
11:16 PM,30.2,15.8,55,29.88,10.0,ENE,17.3,21.9,N/A,,Partly Cloudy,70,2011-11-18 08:16:00
11:36 PM,30.2,15.8,55,29.89,10.0,ENE,15.0,-,N/A,,Clear,70,2011-11-18 08:36:00
11:56 PM,30.2,15.8,55,29.89,10.0,ENE,13.8,20.7,N/A,,Clear,70,2011-11-18 08:56:00